CAPE
2185 2577 2430 1663 1522 1928 1520 1254 1263 1103 983 998 1383 1279 1269 1430 1394 1406 1377 1260 1294 1192 1471 1652 1602 1506 1305 1888 1905 1795 2019 2094 1788 1547 1399 1217 1260 1366 1247 1060 992 1005 871 917 978 789 694 672 626 861 1015 998 1045 1115 1030 890 946 700 582 513 465 524
1729 2285 2532 1778 2140 1992 1556 1566 1982 1330 1327 1041 1247 1209 1417 1962 1309 2116 1275 1170 1348 953 1093 1737 1755 934 1398 1159 1755 2066 2135 2133 2031 1700 1652 1484 1273 1161 1336 1130 954 941 846 785 688 21 150 320 396 803 1180 1102 1311 1128 1081 956 1079 569 642 687 661 835
1789 2364 2647 2384 1832 1854 1769 2071 2196 1800 1410 1276 1726 1732 2103 1498 1899 1720 1370 1219 1331 1127 1094 993 937 824 1107 1333 1875 1930 2095 2128 2048 1939 1667 1596 1478 1241 1183 1184 1017 850 758 151 106 64 201 162 383 240 946 1291 1052 937 1056 1032 1015 831 625 602 514 751
1313 1656 2238 2492 2417 1636 2257 2369 2169 2012 1826 1779 2077 2027 2057 1729 1106 1156 978 1061 1571 1326 1047 1196 1132 902 728 1177 1282 1738 1596 1720 1897 1816 1892 1627 1573 1431 1386 1159 811 456 468 0 0 2 1 32 144 401 486 606 744 976 999 1053 1007 855 789 462 666 829
1303 1479 1439 2308 2567 2344 1680 1671 1626 2006 1958 1916 1965 1962 1942 1888 1598 1255 1364 1394 1402 1621 1232 1395 1246 1489 1435 1221 1033 1235 1531 1551 1214 1190 1681 611 468 667 1187 551 625 254 252 132 70 5 18 55 126 146 308 513 675 938 917 945 979 816 667 807 1059 976
1328 1360 1564 1715 1814 2336 2438 2322 2267 2181 2182 1946 1943 1866 1795 1856 1748 1969 1829 1638 1598 1531 1620 1240 985 892 903 1374 1640 1554 1314 1352 1407 1213 1104 613 329 500 268 263 482 453 362 206 123 64 17 82 100 99 151 313 553 903 749 773 834 875 766 847 1314 1012
1378 1465 1597 1594 1445 2072 2469 2371 2247 2214 2073 2051 2068 1958 1651 1169 1567 1968 1962 1864 1890 1690 1528 1478 1376 1308 1594 1696 1683 1672 1506 1402 1395 1183 1292 993 497 439 204 182 210 344 385 308 142 95 53 47 65 94 148 205 369 637 764 684 717 828 940 773 1366 988
1722 1703 1702 1520 1615 2361 2311 2425 2226 2046 2064 2135 2069 1912 1672 1860 1768 1796 1901 2000 1968 1584 1542 1534 1393 1500 1609 1871 1737 1625 1476 1408 1297 1219 1468 1157 782 211 174 200 180 165 264 170 98 76 42 4 39 48 151 182 323 449 667 584 572 650 867 923 1166 926
1768 1764 1721 1671 1610 1600 2177 2402 2442 2223 2164 1897 2121 2042 2021 2008 1889 1660 1753 1558 1681 1998 1684 1698 1561 1695 1856 2108 1901 1840 2062 2319 2179 1638 1437 1098 466 251 317 206 176 148 167 74 81 26 20 36 46 82 41 108 233 222 388 465 560 564 653 854 742 1081
1696 1348 1478 1499 1377 1500 1566 1576 2252 2402 2304 2089 2111 2128 2053 1846 1752 1675 1232 996 1024 1614 1865 1723 1598 1972 2059 1857 1935 2195 2157 1788 1810 2031 1556 1381 913 280 330 167 157 171 53 72 2 7 3 26 23 40 34 55 146 244 271 342 362 446 514 528 579 1161
1342 1755 1411 1298 1626 1730 1766 1670 1450 1830 2128 2148 2137 2137 1971 1867 1663 1153 1418 1476 1112 1173 1303 1306 1463 1437 1426 1703 1841 1948 1838 1602 1535 1810 1966 1424 1004 453 570 443 141 147 15 15 6 2 1 14 41 13 14 7 74 213 287 310 317 291 328 341 487 630
1336 1887 1741 1092 1530 1410 1414 1528 1664 1506 1592 1904 2246 2131 1911 1861 1833 1621 1775 1335 1145 1151 1033 1152 1359 1390 1394 1239 1296 1366 1484 1718 1693 1793 1686 1415 932 747 578 210 0 219 287 0 0 12 60 78 48 20 19 2 36 145 191 335 275 275 192 202 239 432
1666 1728 1741 1649 1198 1175 1368 1132 1326 1370 1384 1669 1715 1797 1832 1871 1669 1548 1644 1385 1166 1163 909 992 1212 1412 1220 1319 1502 1586 1468 1313 1434 1537 906 922 900 1055 437 214 132 10 62 118 33 1 27 46 174 122 57 31 58 47 58 111 294 276 212 198 221 263
1728 1734 1932 1624 1666 1088 1224 1189 1226 1222 1314 1381 1282 1394 1586 1747 1682 1669 1472 1237 1148 838 853 827 1187 1412 1421 1493 1297 1355 1321 1215 1224 930 826 1005 884 702 433 207 127 144 0 68 7 103 260 140 130 170 166 72 70 51 20 27 121 208 185 181 187 224
1561 1933 1750 1716 1605 1162 1382 1031 822 921 1065 947 964 1114 1584 1612 1374 1136 1199 1211 1378 959 743 679 870 1503 1438 1420 1454 1680 1395 1221 1049 1217 897 936 658 414 676 425 222 337 163 154 33 115 110 462 787 573 367 452 194 42 39 26 29 96 132 245 242 230
1665 1681 1598 1468 1448 1266 1312 1137 817 941 806 1017 568 482 538 406 409 1066 1054 1197 930 1190 1256 1107 972 846 1344 1309 1499 1649 1657 1572 1174 1115 818 1032 1274 1072 955 937 549 631 617 70 161 154 61 160 520 916 808 682 518 359 185 86 56 64 83 100 173 201
1851 1702 1471 1369 1305 1106 1089 1089 852 818 801 748 458 392 376 409 300 354 557 701 269 272 426 463 993 1143 1118 1151 1183 1293 1145 1082 1373 1365 1232 1298 1328 1297 1052 978 1274 1101 1202 862 50 98 145 123 350 256 446 881 718 497 348 184 114 74 7 81 112 144
1800 1430 1601 1456 1417 1331 1067 869 583 494 527 437 389 258 285 304 322 271 257 428 448 260 464 466 630 777 1032 1112 1179 899 828 998 1281 1403 1442 1348 1441 1246 1355 1173 1266 1317 1143 1148 836 734 95 350 373 55 68 114 506 1015 531 232 104 32 33 29 44 74
1666 1627 1493 1660 1629 1390 1156 875 695 424 404 211 199 341 285 252 182 202 322 337 353 448 313 289 476 668 659 662 785 687 696 857 1119 1312 1263 1217 1176 1155 1152 1050 1217 1399 1486 975 617 752 738 929 553 522 224 136 322 899 951 750 363 194 125 27 12 5
1826 1932 1942 1620 1002 684 452 283 318 171 70 13 139 225 254 232 129 89 188 206 238 175 153 150 121 100 255 301 409 442 576 576 548 916 1237 1210 1114 1060 1104 1209 1174 1217 1358 1305 1311 1625 1767 1101 1378 1068 910 888 638 366 686 682 429 203 130 150 78 28
1863 1810 1057 703 520 401 261 203 151 58 38 0 93 228 184 141 60 75 125 3 2 2 8 2 12 30 63 91 113 298 347 595 590 432 800 983 982 853 1094 1248 1246 1233 1134 1486 1523 1711 1708 1019 1382 1277 1305 1060 733 238 740 874 610 327 148 154 148 136
1522 1286 885 634 488 263 105 3 6 2 0 0 0 24 49 113 88 49 0 0 0 0 0 0 2 44 1 122 109 120 263 278 424 440 626 935 839 560 504 916 974 964 881 510 956 1145 1214 966 982 1322 937 821 879 466 378 895 898 319 126 72 193 197
1146 1004 918 785 474 212 98 155 11 2 0 44 115 71 12 47 38 1 0 0 0 0 0 0 6 3 58 112 89 76 74 230 208 293 357 614 897 867 758 840 898 1026 906 922 924 1086 795 952 1146 916 938 425 396 360 556 499 840 991 584 354 306 189
1189 1017 910 900 314 310 398 429 435 123 298 10 95 277 244 51 2 0 0 1 0 0 0 2 0 0 12 14 29 11 11 13 33 55 120 134 160 235 385 609 802 783 770 531 697 699 621 920 869 820 737 514 585 483 226 122 336 783 1057 774 724 661
1216 1109 949 800 673 781 498 400 455 475 235 231 105 62 25 6 4 4 0 0 0 4 2 0 0 1 1 16 13 12 13 18 15 16 2 4 15 39 34 155 246 483 719 585 582 600 470 631 605 880 559 471 402 359 519 586 742 719 597 580 686 559
1099 1156 873 891 676 192 52 135 81 52 12 16 38 8 4 11 7 11 2 0 2 8 9 2 0 0 0 3 12 20 17 7 13 3 1 0 4 2 3 9 12 56 209 397 603 423 574 285 389 381 586 792 389 297 515 541 460 998 1090 606 518 522
934 983 927 745 561 56 94 93 98 24 12 0 0 2 16 15 30 10 2 12 11 21 9 18 11 6 2 0 1 4 7 2 1 1 0 0 1 1 1 2 0 7 6 32 133 162 203 250 208 169 159 288 303 464 334 450 832 711 576 678 287 242
695 688 858 699 402 71 55 85 53 26 2 0 0 20 29 26 32 12 7 5 15 22 13 12 8 3 3 3 4 1 0 0 0 0 0 0 0 0 0 0 0 2 1 2 6 8 18 28 68 110 92 120 174 179 222 490 235 275 684 455 323 353
646 658 871 725 319 192 69 75 39 12 0 0 23 12 0 3 12 16 20 4 1 3 17 7 0 0 0 0 0 0 0 0 0 0 0 0 0 0 0 0 0 0 0 0 2 4 1 4 9 14 20 21 27 50 121 184 119 144 200 243 542 316
636 606 696 731 303 253 134 207 89 14 2 4 1 3 0 4 24 22 17 14 2 0 0 2 0 0 0 0 0 0 0 0 0 0 0 0 0 0 0 0 0 0 0 0 0 0 0 0 0 3 0 1 1 4 5 27 27 31 91 217 160 168
567 407 568 685 332 356 257 328 109 81 25 15 7 1 0 34 25 11 9 0 0 0 0 0 0 0 0 0 0 0 0 0 0 0 0 0 0 0 0 0 0 0 0 0 0 0 0 0 0 0 0 0 0 0 0 0 3 1 6 16 14 6
585 420 600 703 403 415 377 372 165 270 82 26 36 10 1 26 37 16 17 0 0 0 0 0 0 0 0 0 0 0 0 0 0 0 0 0 0 0 0 0 0 0 0 0 0 0 0 0 0 0 0 0 0 0 0 0 0 0 0 0 0 0
511 456 650 710 518 491 482 440 374 465 302 75 78 10 3 14 38 6 10 4 0 0 0 0 0 0 0 0 0 0 0 0 0 0 0 0 0 0 0 0 0 0 0 0 0 0 0 0 0 0 0 0 0 0 0 0 0 0 0 0 0 0
554 577 640 726 602 539 589 467 449 492 430 226 224 21 2 5 51 3 4 9 2 0 0 0 0 0 0 0 0 0 0 0 0 0 0 0 0 0 0 0 0 0 0 0 0 0 0 0 0 0 0 0 0 0 0 0 0 0 0 0 0 0
533 603 684 680 622 610 533 517 556 516 477 414 351 71 12 2 64 16 15 25 6 0 0 0 0 0 0 0 0 0 0 0 0 0 0 0 0 0 0 0 0 0 0 0 0 0 0 0 0 0 0 0 0 0 0 0 0 0 0 0 0 0
538 634 701 658 665 617 624 572 688 662 611 491 254 172 66 12 68 92 52 32 11 0 0 0 0 1 10 0 7 2 0 0 0 0 0 0 0 0 0 0 0 0 0 0 0 0 0 0 0 0 0 0 0 0 0 0 0 0 0 0 0 0
481 622 616 586 644 635 708 702 803 849 722 669 513 331 215 280 342 345 178 107 25 23 0 0 1 18 11 2 24 6 0 0 0 0 0 0 0 0 0 0 0 0 0 0 0 0 0 0 0 0 0 0 0 0 0 0 0 0 0 0 0 0
Wind_Speed
29 29 29 31 29 27 27 27 23 26 22 21 21 21 21 21 20 20 17 20 17 16 18 16 18 17 18 18 17 16 14 14 13 13 14 15 17 19 22 23 23 24 26 27 26 25 25 26 28 26 21 15 14 11 13 14 19 21 22 25 21 27
29 29 27 28 27 25 26 24 23 23 20 20 21 21 17 17 17 16 15 19 13 17 13 14 17 14 14 17 16 16 14 14 15 15 15 15 15 18 22 24 24 24 25 26 22 nan 20 23 27 26 22 16 12 15 15 15 18 20 23 24 23 29
31 29 28 26 26 25 24 22 22 22 21 19 19 18 18 17 16 15 15 12 12 15 13 18 15 15 14 21 17 14 15 15 16 18 17 16 16 17 20 25 26 24 23 22 19 nan 18 20 24 24 20 16 17 16 15 15 16 21 21 27 26 28
32 29 26 25 24 25 23 23 22 21 21 20 19 17 17 16 16 11 15 12 12 14 10 19 21 23 16 16 15 12 14 16 16 17 19 17 18 17 21 24 26 24 18 nan nan nan nan nan 23 25 24 22 20 18 15 15 15 20 22 24 27 28
31 29 26 25 24 24 25 22 22 20 21 19 18 17 17 16 15 11 17 13 14 13 11 16 15 15 14 15 12 11 13 12 14 15 18 13 14 16 14 17 22 20 17 16 nan nan nan nan 23 26 28 25 22 19 16 16 17 18 21 24 29 27
29 28 25 23 23 26 24 24 23 22 21 21 20 17 18 17 14 13 12 15 17 14 11 18 12 11 12 13 13 12 13 14 14 15 17 14 15 16 14 16 19 21 20 18 19 nan nan nan 23 nan 28 27 23 20 17 16 16 17 20 22 27 26
26 27 24 22 23 23 24 24 22 21 20 20 20 19 16 16 15 16 14 15 17 15 13 13 13 12 12 13 13 13 13 14 14 14 17 16 16 16 15 16 19 22 23 21 21 nan nan nan nan nan 29 27 25 21 19 16 16 16 19 20 26 25
25 24 22 20 22 24 24 23 23 21 19 22 20 18 16 17 17 16 14 17 14 16 15 13 13 13 12 14 14 13 13 13 13 14 17 16 18 16 16 17 18 22 23 23 nan nan nan nan nan nan 30 28 26 23 20 18 17 17 17 18 22 23
22 20 20 19 21 23 24 23 22 20 21 23 20 19 19 17 15 16 17 18 16 18 16 15 14 14 15 17 17 15 14 14 15 14 16 15 16 19 17 16 18 20 23 nan nan nan nan nan nan nan nan 29 27 25 22 19 18 17 16 19 19 23
20 19 21 20 22 23 23 22 22 22 23 21 21 22 20 19 17 17 22 18 15 16 17 17 15 17 19 19 17 16 15 16 15 15 16 15 17 17 17 17 18 19 nan nan nan nan nan nan nan nan nan nan 28 25 24 21 18 17 17 17 19 24
22 20 20 20 22 24 24 22 22 22 23 21 23 22 21 20 20 19 21 22 26 26 25 21 19 22 23 20 18 18 17 16 14 15 16 16 11 13 15 20 21 18 nan nan nan nan nan nan nan nan nan nan nan 27 26 24 22 19 18 18 18 20
22 19 17 19 21 22 23 23 23 23 23 24 24 23 23 21 21 22 25 28 24 25 27 21 20 22 22 22 18 17 17 16 15 14 15 15 14 13 15 19 nan 19 22 nan nan nan nan nan nan nan nan nan nan 29 27 26 23 21 20 19 19 19
21 20 17 19 21 22 23 23 24 23 24 24 24 23 23 23 24 25 25 29 29 30 29 24 22 22 22 21 19 17 17 17 16 16 14 12 11 15 16 17 15 nan nan 18 nan nan nan nan 23 24 nan nan nan nan nan 27 25 24 23 21 19 19
21 20 20 21 22 21 24 25 24 25 25 24 23 23 24 24 24 24 26 27 30 30 28 27 24 23 22 22 20 19 20 19 17 18 15 15 15 15 15 15 16 18 nan nan nan 20 21 22 23 26 28 nan nan nan nan nan 27 25 23 22 21 20
22 22 22 22 21 23 25 24 25 25 26 25 25 24 25 23 24 22 23 24 26 28 25 24 23 23 21 20 20 20 20 19 18 18 17 16 15 16 16 16 17 17 19 18 nan 20 20 22 24 27 29 30 32 nan nan nan nan nan 24 24 23 21
24 23 22 22 23 24 26 25 27 27 27 26 26 25 25 25 25 27 27 28 28 29 27 26 23 22 22 21 20 20 19 18 18 19 20 18 17 17 17 17 16 16 19 nan 18 19 nan 21 22 26 29 31 32 33 33 nan nan nan nan 26 24 22
24 24 23 24 23 24 26 26 27 28 29 27 27 27 28 26 28 28 28 29 30 30 29 27 25 22 20 20 21 21 20 18 20 20 20 19 19 18 17 17 18 17 17 17 nan nan 19 20 21 22 25 29 32 32 32 33 32 nan nan nan 27 25
23 24 25 25 25 25 26 27 27 29 29 29 29 29 29 30 30 29 29 30 30 30 31 29 27 25 22 21 22 22 20 21 22 21 20 19 19 19 17 16 18 18 17 16 17 17 nan 19 20 nan nan 24 28 30 31 32 34 nan nan nan nan nan
23 24 26 27 29 29 29 28 30 29 30 30 30 31 31 31 32 32 33 32 31 31 30 30 29 27 24 23 23 23 23 22 23 22 22 21 21 19 18 18 17 19 17 16 16 15 17 20 20 22 22 23 25 27 30 32 33 33 32 nan nan nan
24 23 25 27 29 29 29 29 30 30 nan nan 32 33 33 33 33 nan 34 32 32 29 31 30 29 28 26 25 24 24 24 22 22 22 21 21 22 22 20 18 17 19 18 18 18 18 19 20 22 23 24 24 23 25 26 29 29 29 31 31 nan nan
26 25 23 24 25 27 28 30 30 nan nan nan nan 35 35 35 nan nan 34 nan nan nan nan nan nan nan nan nan 25 26 25 25 23 22 22 21 22 22 22 20 19 21 18 19 21 21 20 19 21 23 23 23 27 26 26 29 29 28 30 33 33 33
27 26 23 22 24 25 26 nan nan nan nan nan nan nan nan 35 nan nan nan nan nan nan nan nan nan nan nan 28 27 27 27 26 25 25 24 26 25 25 25 24 23 22 22 20 22 23 23 23 20 20 24 25 28 33 33 29 31 31 30 nan 32 33
26 26 24 23 24 25 nan 27 nan nan nan nan 33 nan nan nan nan nan nan nan nan nan nan nan nan nan nan 29 nan nan nan 27 27 27 27 27 27 27 27 26 24 24 26 26 25 25 23 23 23 23 25 24 23 29 31 34 33 35 36 33 33 33
27 25 25 25 23 26 27 28 29 29 30 nan nan 32 32 nan nan nan nan nan nan nan nan nan nan nan nan nan nan nan nan nan nan nan 27 28 28 29 29 28 27 26 27 28 29 27 26 24 23 25 21 18 20 20 29 29 31 36 40 38 37 36
27 26 25 26 25 27 28 27 27 28 29 29 29 nan nan nan nan nan nan nan nan nan nan nan nan nan nan nan nan nan nan nan nan nan nan nan nan nan nan 29 29 27 27 29 31 30 30 29 25 24 20 21 19 16 19 26 30 31 37 39 40 37
26 26 26 26 25 25 nan 25 nan nan nan nan nan nan nan nan nan nan nan nan nan nan nan nan nan nan nan nan nan nan nan nan nan nan nan nan nan nan nan nan nan nan 29 28 30 32 34 34 33 29 25 23 21 19 19 21 24 26 32 39 42 39
27 26 25 25 25 nan nan nan nan nan nan nan nan nan nan nan nan nan nan nan nan nan nan nan nan nan nan nan nan nan nan nan nan nan nan nan nan nan nan nan nan nan nan nan 29 32 34 35 34 33 30 29 28 23 20 19 21 25 24 30 30 30
28 26 25 24 24 nan nan nan nan nan nan nan nan nan nan nan nan nan nan nan nan nan nan nan nan nan nan nan nan nan nan nan nan nan nan nan nan nan nan nan nan nan nan nan nan nan nan nan nan 33 nan 31 29 24 22 22 23 21 23 26 26 29
28 26 25 25 24 21 nan nan nan nan nan nan nan nan nan nan nan nan nan nan nan nan nan nan nan nan nan nan nan nan nan nan nan nan nan nan nan nan nan nan nan nan nan nan nan nan nan nan nan nan nan nan nan nan 28 27 25 20 19 23 26 28
26 24 24 26 23 21 19 19 nan nan nan nan nan nan nan nan nan nan nan nan nan nan nan nan nan nan nan nan nan nan nan nan nan nan nan nan nan nan nan nan nan nan nan nan nan nan nan nan nan nan nan nan nan nan nan nan nan nan nan 18 20 24
25 24 25 26 24 22 20 18 18 nan nan nan nan nan nan nan nan nan nan nan nan nan nan nan nan nan nan nan nan nan nan nan nan nan nan nan nan nan nan nan nan nan nan nan nan nan nan nan nan nan nan nan nan nan nan nan nan nan nan nan nan nan
24 24 25 26 25 22 20 18 17 18 nan nan nan nan nan nan nan nan nan nan nan nan nan nan nan nan nan nan nan nan nan nan nan nan nan nan nan nan nan nan nan nan nan nan nan nan nan nan nan nan nan nan nan nan nan nan nan nan nan nan nan nan
25 25 25 26 25 23 21 19 17 17 18 nan nan nan nan nan nan nan nan nan nan nan nan nan nan nan nan nan nan nan nan nan nan nan nan nan nan nan nan nan nan nan nan nan nan nan nan nan nan nan nan nan nan nan nan nan nan nan nan nan nan nan
25 26 26 26 25 23 21 18 17 16 17 18 18 nan nan nan nan nan nan nan nan nan nan nan nan nan nan nan nan nan nan nan nan nan nan nan nan nan nan nan nan nan nan nan nan nan nan nan nan nan nan nan nan nan nan nan nan nan nan nan nan nan
25 26 25 26 25 24 22 20 18 17 17 17 18 nan nan nan nan nan nan nan nan nan nan nan nan nan nan nan nan nan nan nan nan nan nan nan nan nan nan nan nan nan nan nan nan nan nan nan nan nan nan nan nan nan nan nan nan nan nan nan nan nan
24 26 25 25 25 25 23 23 21 20 19 18 18 18 nan nan nan nan nan nan nan nan nan nan nan nan nan nan nan nan nan nan nan nan nan nan nan nan nan nan nan nan nan nan nan nan nan nan nan nan nan nan nan nan nan nan nan nan nan nan nan nan
24 25 25 25 25 24 24 24 23 22 21 20 19 18 17 17 17 17 16 15 nan nan nan nan nan nan nan nan nan nan nan nan nan nan nan nan nan nan nan nan nan nan nan nan nan nan nan nan nan nan nan nan nan nan nan nan nan nan nan nan nan nan
Wind_Direction
286 285 284 283 285 286 288 289 286 278 277 272 265 259 257 261 262 271 270 269 267 279 276 276 279 284 284 284 281 265 270 257 257 259 260 263 263 263 261 258 253 248 249 250 244 240 229 220 216 212 218 236 250 227 224 219 224 220 213 222 213 226
285 286 283 281 279 281 283 288 289 283 281 277 274 275 274 271 274 267 266 270 273 266 261 267 279 272 279 278 273 267 265 258 251 255 253 256 259 261 262 260 257 252 249 253 254 nan 241 233 225 217 218 236 231 217 219 223 220 220 219 222 215 233
286 285 284 279 278 278 281 278 282 281 275 273 275 276 276 279 274 272 272 263 273 278 294 292 285 279 257 260 250 264 266 259 252 252 257 257 260 260 259 258 259 256 249 251 249 nan 223 226 224 229 227 224 215 219 219 221 222 221 217 219 221 239
285 285 282 276 273 272 271 270 267 270 268 270 271 272 274 276 276 276 288 285 265 265 269 260 251 273 264 279 270 268 262 264 259 255 262 264 267 265 263 259 256 259 254 nan nan nan nan nan 214 214 216 214 217 220 217 220 217 223 217 220 226 240
283 282 279 273 271 268 270 267 265 264 265 265 266 268 268 268 273 281 273 266 273 261 256 260 268 269 264 273 286 285 278 268 261 259 268 254 262 263 256 248 248 255 248 243 nan nan nan nan 213 210 212 214 216 219 217 217 215 219 222 221 230 237
280 279 274 270 267 261 258 255 255 255 258 260 262 264 268 262 268 265 257 270 271 269 253 267 272 273 288 289 284 279 273 266 260 256 261 250 250 250 245 240 238 240 243 242 242 nan nan nan 216 nan 211 216 215 219 218 218 218 214 221 222 236 239
279 275 274 269 263 259 255 254 250 251 256 256 257 259 259 274 270 266 267 265 268 271 267 267 274 278 278 279 279 273 270 268 266 260 256 249 248 248 240 237 234 236 242 244 245 nan nan nan nan nan 210 214 214 218 219 220 219 217 221 221 238 245
279 275 270 266 261 253 250 250 250 250 249 252 252 255 253 255 259 267 269 260 261 268 269 268 270 277 276 270 269 269 269 270 270 264 258 250 251 248 246 241 237 236 244 248 nan nan nan nan nan nan 209 211 215 217 218 219 218 219 224 221 236 245
280 277 268 260 256 253 250 249 250 250 250 253 255 253 251 254 255 264 257 256 258 262 265 265 267 271 268 265 265 269 271 269 255 256 260 262 258 254 247 245 244 239 243 nan nan nan nan nan nan nan nan 212 212 216 218 219 219 222 223 227 221 246
281 273 264 255 251 247 245 247 248 247 247 253 251 251 254 253 254 251 262 267 269 268 266 256 262 262 259 265 269 271 270 272 274 265 253 249 253 255 254 249 247 246 nan nan nan nan nan nan nan nan nan nan 217 214 220 220 221 222 228 228 226 243
279 265 260 255 246 243 240 238 242 245 246 244 249 250 251 253 258 251 256 261 253 248 248 249 254 257 256 261 264 268 274 274 277 275 269 263 255 268 257 245 236 239 nan nan nan nan nan nan nan nan nan nan nan 217 219 218 218 222 223 227 230 232
273 269 259 255 249 244 240 239 239 239 242 246 248 251 253 254 255 263 262 258 263 264 265 263 259 260 263 265 269 274 274 278 278 276 279 285 293 277 267 260 nan 233 228 nan nan nan nan nan nan nan nan nan nan 219 220 221 217 220 220 222 223 230
270 268 261 252 247 241 239 240 241 240 243 247 250 253 256 258 257 259 259 266 262 263 268 270 269 268 268 271 275 276 275 278 281 284 284 278 276 277 275 275 265 nan nan 241 nan nan nan nan 219 219 nan nan nan nan nan 222 220 216 219 220 223 225
269 268 260 254 248 244 240 239 239 240 242 243 245 250 256 257 260 260 261 258 267 267 266 267 273 272 271 274 276 275 275 277 284 291 291 289 280 284 286 285 279 271 nan nan nan 251 249 243 230 224 221 nan nan nan nan nan 222 220 221 219 220 224
272 266 260 255 253 248 243 239 240 241 243 244 248 251 255 257 264 269 269 268 267 271 273 275 274 272 275 275 276 274 276 281 285 285 286 287 290 291 286 284 280 278 272 265 nan 259 255 249 243 235 224 219 223 nan nan nan nan nan 223 223 220 221
275 271 266 261 255 250 248 242 242 242 245 246 248 252 254 257 259 260 261 265 268 271 273 275 274 276 275 274 270 272 273 276 282 281 281 284 286 284 283 279 276 273 272 nan 266 263 nan 256 251 246 233 223 221 225 227 nan nan nan nan 224 226 223
275 275 272 267 263 256 251 248 246 247 249 251 253 253 258 259 259 259 259 262 266 266 269 272 274 276 275 276 272 268 271 274 270 271 276 280 282 278 278 280 276 274 271 271 nan nan 260 257 255 252 244 231 225 223 225 230 230 nan nan nan 224 226
271 271 270 271 268 263 259 256 253 252 252 253 253 255 257 258 260 262 262 261 262 264 265 269 271 272 272 271 271 271 269 268 270 271 272 276 274 277 276 275 275 273 272 268 266 266 nan 252 249 nan nan 245 233 227 225 226 230 nan nan nan nan nan
273 267 266 268 269 265 263 258 256 257 258 257 258 258 258 261 259 259 260 260 258 260 262 265 268 271 270 270 269 268 264 263 267 269 270 269 272 273 272 274 271 270 265 264 264 263 258 248 239 239 243 246 242 236 230 227 230 233 234 nan nan nan
276 270 265 264 265 265 264 262 261 260 nan nan 260 261 260 260 261 nan 261 261 261 261 264 265 266 267 268 267 267 267 269 269 269 270 270 269 263 262 269 268 271 269 266 264 262 261 260 256 245 239 232 234 239 243 241 235 230 233 236 237 nan nan
281 277 272 270 267 265 264 262 261 nan nan nan nan 262 260 259 nan nan 259 nan nan nan nan nan nan nan nan nan 266 265 267 267 269 270 269 265 265 265 262 259 264 266 267 268 263 260 261 259 250 243 244 237 231 227 239 243 236 233 234 235 235 234
281 281 280 277 273 268 264 nan nan nan nan nan nan nan nan 263 nan nan nan nan nan nan nan nan nan nan nan 270 268 268 266 266 264 265 265 267 266 264 264 262 260 263 259 254 258 267 263 265 259 250 246 244 239 235 220 229 240 237 236 nan 236 235
283 284 282 280 277 275 nan 262 nan nan nan nan 256 nan nan nan nan nan nan nan nan nan nan nan nan nan nan 270 nan nan nan 263 262 262 263 263 262 261 260 261 261 257 262 259 258 257 265 264 261 259 251 247 242 233 234 224 226 238 238 236 235 235
288 286 283 281 279 275 272 270 264 266 261 nan nan 263 262 nan nan nan nan nan nan nan nan nan nan nan nan nan nan nan nan nan nan nan 256 256 254 258 261 257 254 254 256 263 261 259 252 257 259 266 262 258 245 241 235 229 228 233 235 236 237 237
293 290 285 283 282 277 276 276 272 270 268 265 266 nan nan nan nan nan nan nan nan nan nan nan nan nan nan nan nan nan nan nan nan nan nan nan nan nan nan 256 257 254 248 247 259 257 259 254 257 260 258 263 254 245 246 242 237 231 233 233 235 238
296 291 288 288 286 282 nan 280 nan nan nan nan nan nan nan nan nan nan nan nan nan nan nan nan nan nan nan nan nan nan nan nan nan nan nan nan nan nan nan nan nan nan 255 252 249 255 256 258 258 257 258 260 256 250 252 245 241 237 241 238 230 226
301 293 291 291 291 nan nan nan nan nan nan nan nan nan nan nan nan nan nan nan nan nan nan nan nan nan nan nan nan nan nan nan nan nan nan nan nan nan nan nan nan nan nan nan 252 253 254 259 262 259 254 256 256 250 245 240 234 236 242 242 230 229
301 297 294 294 297 nan nan nan nan nan nan nan nan nan nan nan nan nan nan nan nan nan nan nan nan nan nan nan nan nan nan nan nan nan nan nan nan nan nan nan nan nan nan nan nan nan nan nan nan 258 nan 254 261 261 254 245 236 229 233 237 233 227
300 299 298 301 300 300 nan nan nan nan nan nan nan nan nan nan nan nan nan nan nan nan nan nan nan nan nan nan nan nan nan nan nan nan nan nan nan nan nan nan nan nan nan nan nan nan nan nan nan nan nan nan nan nan 261 261 249 246 236 232 233 236
303 301 300 303 303 303 301 292 nan nan nan nan nan nan nan nan nan nan nan nan nan nan nan nan nan nan nan nan nan nan nan nan nan nan nan nan nan nan nan nan nan nan nan nan nan nan nan nan nan nan nan nan nan nan nan nan nan nan nan 245 234 233
308 304 304 305 306 305 302 296 292 nan nan nan nan nan nan nan nan nan nan nan nan nan nan nan nan nan nan nan nan nan nan nan nan nan nan nan nan nan nan nan nan nan nan nan nan nan nan nan nan nan nan nan nan nan nan nan nan nan nan nan nan nan
310 310 306 305 306 303 301 298 294 292 nan nan nan nan nan nan nan nan nan nan nan nan nan nan nan nan nan nan nan nan nan nan nan nan nan nan nan nan nan nan nan nan nan nan nan nan nan nan nan nan nan nan nan nan nan nan nan nan nan nan nan nan
311 310 307 306 307 306 302 300 296 293 291 nan nan nan nan nan nan nan nan nan nan nan nan nan nan nan nan nan nan nan nan nan nan nan nan nan nan nan nan nan nan nan nan nan nan nan nan nan nan nan nan nan nan nan nan nan nan nan nan nan nan nan
307 307 304 305 307 307 305 301 297 292 290 287 289 nan nan nan nan nan nan nan nan nan nan nan nan nan nan nan nan nan nan nan nan nan nan nan nan nan nan nan nan nan nan nan nan nan nan nan nan nan nan nan nan nan nan nan nan nan nan nan nan nan
304 305 305 305 304 306 302 302 297 294 290 286 285 nan nan nan nan nan nan nan nan nan nan nan nan nan nan nan nan nan nan nan nan nan nan nan nan nan nan nan nan nan nan nan nan nan nan nan nan nan nan nan nan nan nan nan nan nan nan nan nan nan
297 297 299 301 301 302 300 296 297 296 292 289 284 281 nan nan nan nan nan nan nan nan nan nan nan nan nan nan nan nan nan nan nan nan nan nan nan nan nan nan nan nan nan nan nan nan nan nan nan nan nan nan nan nan nan nan nan nan nan nan nan nan
287 288 292 293 294 294 296 297 297 295 292 290 291 289 284 285 286 286 286 286 nan nan nan nan nan nan nan nan nan nan nan nan nan nan nan nan nan nan nan nan nan nan nan nan nan nan nan nan nan nan nan nan nan nan nan nan nan nan nan nan nan nan